Back to catalog

STARLINK-30616

AliveCommunicationsVLEO
NORAD 58105·PAYLOAD·🇺🇸 United States

Launched Oct 21, 2023 from Vandenberg Space Force Base

Loading…

Next Passes (next 24 hours)

TLE

FreshSource: CelesTrak SupGP

Epoch: Sep 15, 2026, 02:49 UTC

1 58105C 23161J   26258.11784722  .00071893  00000+0  21236-2 0  2588
2 58105  53.1597 349.0857 0001150  83.9435 324.6164 15.34362352    17

Track STARLINK-30616 in real time with AllMySat

Download on the App Store